This demonstration page uses our WeatherBlox Daily Observations layout. Learn more.

Left ArrowRight Arrow

39.08367, -84.50855

Hourly Observations for April 2, 2022

Temp ( °F °C ) Dew Point ( °F °C ) Humidity (%) Winds ( mph kmh ) Pressure ( in mb ) Visibility ( mi km ) Precip ( " mm )
12:53 am 00:53 Clear 29 -1.7 27 -2.8 92 92 Calm 30.22 1023 10 16 0.00 0.00
1:53 am 01:53 Clear 29 -1.7 27 -2.8 92 92 Calm 30.20 1023 10 16 0.00 0.00
2:53 am 02:53 Clear 27 -2.8 26 -3.3 96 96 Calm 30.20 1023 9 14 0.00 0.00
3:53 am 03:53 Clear 26 -3.3 26 -3.3 100 100 Calm 30.19 1023 8 13 0.00 0.00
4:53 am 04:53 Clear 28 -2.2 26 -3.3 92 92 Calm 30.19 1022 9 14 0.00 0.00
5:00 am 05:00 Clear with Mist and Fog 26 -3.3 25 -3.9 96 96 Calm 30.22 1023 2 3 0.00 0.00
5:10 am 05:10 Clear with Mist and Fog 26 -3.3 25 -3.9 96 96 Calm 30.22 1023 3 5 0.00 0.00
5:53 am 05:53 Clear with Mist and Fog 26 -3.3 25 -3.9 96 96 Calm 30.18 1022 5 8 0.00 0.00
6:53 am 06:53 Clear 26 -3.3 25 -3.9 96 96 Calm 30.17 1022 8 13 0.00 0.00
7:53 am 07:53 Sunny with Mist and Fog 26 -3.3 25 -3.9 96 96 Calm 30.18 1022 6 10 0.00 0.00
8:53 am 08:53 Sunny with Mist and Fog 32 0 30 -1.1 92 92 Calm 30.18 1022 6 10 0.00 0.00
9:53 am 09:53 Sunny 39 3.9 32 0 76 76 VRB 3 6 30.15 1021 10 16 0.00 0.00
10:53 am 10:53 Sunny 43 6.1 30 -1.1 60 60 S 10 17 30.16 1021 10 16 0.00 0.00
11:53 am 11:53 Sunny 46 7.8 29 -1.7 51 51 S 5 7 30.13 1020 10 16 0.00 0.00
12:53 pm 12:53 Sunny 48 8.9 30 -1.1 50 50 S 9 15 30.08 1019 10 16 0.00 0.00
1:53 pm 13:53 Sunny 49 9.4 29 -1.7 46 46 SSW 7 11 30.04 1017 10 16 0.00 0.00
2:53 pm 14:53 Partly Cloudy 50 10 30 -1.1 46 46 SW 6 9 30.00 1016 10 16 0.00 0.00
3:53 pm 15:53 Cloudy 50 10 31 -0.6 48 48 S 8 13 29.97 1015 10 16 0.00 0.00
4:53 pm 16:53 Cloudy 51 10.6 31 -0.6 46 46 SSW 12 19 29.95 1014 10 16 0.00 0.00
5:53 pm 17:53 Cloudy 50 10 32 0 50 50 SSW 9 15 29.93 1014 10 16 0.00 0.00
6:53 pm 18:53 Cloudy 50 10 32 0 50 50 SSE 7 11 29.89 1012 10 16 0.00 0.00
7:53 pm 19:53 Cloudy 50 10 32 0 50 50 SW 7 11 29.91 1013 10 16 0.00 0.00
8:53 pm 20:53 Cloudy with Light Rain 49 9.4 34 1.1 56 56 SW 9 15 29.91 1013 10 16 0.00 0.00
9:53 pm 21:53 Mostly Cloudy 48 8.9 34 1.1 58 58 SSW 12 19 29.91 1013 10 16 0.00 0.00
10:53 pm 22:53 Partly Cloudy 45 7.2 36 2.2 71 71 SW 9 15 29.91 1013 10 16 0.00 0.00
11:53 pm 23:53 Mostly Cloudy 50 10 39 3.9 66 66 W 20 31 29.93 1014 10 16 0.00 0.00

Powered by AerisWeather